星链-1862 (STARLINK-1862 )

导读 | 豆包AI

STARLINK-1862是美国SpaceX公司星链星座的成员,于2020年11月25日发射升空,部署于近地轨道。星链计划旨在构建全球覆盖的低轨卫星互联网,为偏远地区提供高速宽带服务,同时具备潜在军事应用价值。该卫星批量生产发射,降低了成本,推动全球天基通信网络建设,助力SpaceX完成超万颗卫星组网目标。

Basic Information
目录编号:
47149
目录名称:
STARLINK-1862
国际标识:
2020-088AD
轨道中心:
EARTH
卫星名称:
星链-1862
卫星全名:
星链-1862 (STARLINK-1862 )
卫星状态:
已陨落 最后检测时间 2025-06-14
发射日期:
2020-11-25 UTC
国别 :
美国 (US)
星等 :
--
Orbit Information
数据来源 国际轨道数据
星历时间: 2025-06-14T12:04:20+0800
轨道信息已过期320天
半长轴: 6545.036km
偏心率: 0.000768
轨道倾角: 53.022°
近地点辐角 274.069°
升交点赤经 15.012°
平近点角 189.670°
近地点: 161.874km
远地点: 171.928km
周期: 87.827分钟
每日圈数: 16.395881
Detailed Information
固有亮度:
5
最大亮度:
2.5
卫星平台:
Starlink V1.0
覆盖范围:
全球
运营商:
太空探索技术公司
运营商所在国:
美国
制造商(研发单位):
太空探索技术公司
制造商所在国:
美国
使用方式:
暂无
Satellite Introduction
星链(Starlink)计划是由太空探索技术公司(SpaceX)提出的一个巨型低轨卫星互联网星座项目,计划在2019年至2024年间在太空搭建由约1.2万颗卫星组成的“星链”网络,其中1584颗将部署在地球上空550千米处的近地轨道,并从2020年开始工作。该卫星仍在工作。